Regional Weather Roundup
Issued by NWS

Home | Current Version | Previous Version | Graphics & Text | Print | Product List | Glossary On
Versions: 1 2 3 4 5 6 7 8 9 10 11 12 13 14 15 16 17 18 19 20 21 22 23 24 25 26 27 28 29 30 31 32 33 34 35 36 37 38 39 40 41 42 43 44 45 46 47 48 49 50
000
ASUS45 KABQ 021601
RWRNM
NEW MEXICO REGIONAL WEATHER ROUNDUP
NATIONAL WEATHER SERVICE ALBUQUERQUE NM
1000 AM MDT SUN AUG 02 2015

NOTE: "FAIR" MEANS FEW OR NO CLOUDS BELOW 12,000 FEET AGL WITH NO
       SIGNIFICANT WEATHER OR OBSTRUCTIONS TO VISION.

      THIS PRODUCT IS RELEASED AS TWO VERSIONS.  ONE VERSION NEAR
      THE TOP OF THE HOUR CONTAINING PRELIMINARY DATA FROM ALBUQUERQUE
      AND OTHER STATIONS.  A FINAL VERSION WITH ADDITIONAL DATA IS
      ISSUED ABOUT 10 MINUTES AFTER THE HOUR.

NMZ501-503-504-510>518-021700-
NORTHWEST PLATEAU/NORTHCENTRAL MOUNTAINS

CITY           SKY/WX    TMP DP  RH WIND       PRES   REMARKS
FARMINGTON     SUNNY     71  57  61 E5        30.19R
SANTA FE       MOSUNNY   72  56  57 SW5       30.23S
TAOS           MOSUNNY   66  50  55 SW5       30.31R
ANGEL FIRE     FAIR      64  54  69 NE5       30.37S

$$
NMZ402-403-502-505>509-021700-
WESTCENTRAL MOUNTAINS/SOUTHWEST MOUNTAINS

CITY           SKY/WX    TMP DP  RH WIND       PRES   REMARKS
GALLUP         CLOUDY    70  54  56 VRB3      30.27R
SILVER CITY      N/A     77  54  44 SW3       30.21S

$$
NMZ407-409-411-412-021700-
SOUTHERN DESERTS

CITY           SKY/WX    TMP DP  RH WIND       PRES   REMARKS
DEMING         CLOUDY    82  57  42 N7        30.11S
HOLLOMAN AFB   MOSUNNY   85  55  34 SW7       30.08R
ALAMOGORDO     MOSUNNY   79  57  47 S8        30.11R
T OR C         SUNNY     79  57  46 W5        30.14R

$$
NMZ519>523-021700-
CENTRAL VALLEYS/CENTRAL HIGHLANDS

CITY           SKY/WX    TMP DP  RH WIND       PRES   REMARKS
ALBUQUERQUE    MOSUNNY   74  56  53 CALM      30.20S
DOUBLE EAGLE   PTSUNNY   72  57  60 VRB5      30.23S
MORIARTY ARPT    N/A     73  55  54 N5        30.24S
CLINES CORNERS SUNNY     71  57  61 NW12      30.27R
BELEN          FAIR      73  58  60 NE7       30.19S
SOCORRO        NOT AVBL

$$
NMZ524>526-539-540-021700-
SOUTHCENTRAL MOUNTAINS

CITY           SKY/WX    TMP DP  RH WIND       PRES   REMARKS
RUIDOSO          N/A    N/A N/A N/A MISG        N/A

$$
NMZ527>531-021700-
NORTHEAST HIGHLANDS/NORTHEAST PLAINS

CITY           SKY/WX    TMP DP  RH WIND       PRES   REMARKS
LAS VEGAS      SUNNY     71  53  52 VRB5      30.25R
RATON          SUNNY     73  51  46 CALM      30.19S
CLAYTON        SUNNY     82  58  43 NW6       30.10S

$$
NMZ532>537-021700-
EASTCENTRAL PLAINS

CITY           SKY/WX    TMP DP  RH WIND       PRES   REMARKS
TUCUMCARI      PTSUNNY   80  63  55 SW9       30.05S
CANNON AFB     MOSUNNY   80  64  57 S7        30.09S
CLOVIS AIRPORT SUNNY     81  63  54 S9        30.09F

$$
NMZ028-029-538-021700-
SOUTHEAST PLAINS

CITY           SKY/WX    TMP DP  RH WIND       PRES   REMARKS
ROSWELL        SUNNY     85  61  44 SE8       30.05S
ARTESIA        SUNNY     84  63  48 S8        30.06S
CARLSBAD       SUNNY     86  61  42 SE5       30.02F
HOBBS          SUNNY     86  63  45 S8        30.07S


$$


USA.gov is the U.S. government's official web portal to all federal, state and local government web resources and services.